Lid_Strength_Index
16 17 16 16 16 17 17 15 16 15 16 15 13 13 13 13 13 13 13 13 14 13 14 14 14 14 14 14 14 13 14 14 14 14 15 15 16 16 17 16 17 16 16 16
19 17 16 18 17 17 15 16 16 16 17 14 13 13 14 14 13 14 13 12 12 12 12 12 13 13 13 14 13 13 14 14 15 15 15 16 17 17 16 16 16 16 16 16
18 20 19 19 18 16 16 15 14 17 13 16 16 15 15 15 15 14 12 11 11 12 12 11 12 12 13 13 13 15 15 17 17 17 17 17 17 16 16 17 16 17 17 17
22 21 23 19 20 17 14 14 14 16 18 17 16 16 15 15 14 14 13 12 11 11 13 12 13 13 13 13 15 15 16 18 17 17 18 17 17 17 17 17 18 18 18 18
21 22 20 19 19 20 18 18 18 16 16 17 16 17 17 15 14 13 13 13 13 13 13 14 13 13 14 15 15 16 16 16 17 17 18 18 20 19 19 19 19 20 18 19
23 23 23 22 19 17 17 22 19 18 17 18 17 21 18 15 14 13 13 13 12 12 13 13 13 14 15 16 16 17 16 15 16 17 20 21 19 20 20 21 19 18 19 19
21 21 21 19 19 17 22 18 21 19 17 17 18 16 14 14 14 13 12 12 12 13 13 13 14 15 16 16 16 16 16 17 17 18 20 21 21 21 23 23 20 22 21 21
21 22 22 18 17 18 16 16 15 16 15 14 14 13 13 13 13 13 13 12 12 13 13 14 15 15 16 16 16 17 18 18 19 20 21 20 26 25 25 25 25 24 24 22
18 19 17 15 14 13 13 14 14 14 13 13 13 13 13 13 13 13 12 12 12 13 14 15 16 14 15 16 17 18 20 20 22 22 20 20 25 23 24 26 25 23 21 21
18 18 16 14 12 12 12 12 12 12 13 13 13 13 13 13 13 13 13 13 14 16 16 15 16 15 17 17 18 22 24 21 20 21 20 21 20 20 24 25 23 22 22 21
19 16 15 13 12 11 11 12 12 12 12 12 12 13 13 13 13 13 12 14 15 14 13 14 17 18 19 19 20 22 23 21 20 20 21 21 21 20 20 20 19 21 18 16
19 14 13 12 11 11 12 11 12 12 13 13 12 12 12 12 12 12 12 15 15 15 15 16 17 19 21 22 22 22 21 20 20 20 20 20 20 21 16 13 11 10 10 12
13 11 11 11 11 11 11 12 12 12 12 12 12 12 13 12 13 13 16 16 16 17 18 19 20 20 22 24 24 23 23 20 20 20 21 21 21 22 23 19 14 13 13 12
11 11 12 11 11 11 11 11 12 13 13 12 12 15 15 15 18 18 19 19 19 18 19 20 22 22 23 24 25 24 23 21 22 21 22 23 23 23 22 23 24 22 17 15
11 11 9 11 11 12 12 14 15 14 14 16 18 17 17 18 19 18 20 20 19 19 22 23 24 23 25 25 23 23 22 22 22 22 22 22 22 22 23 23 24 24 22 19
12 12 12 12 11 13 14 17 16 14 16 17 18 19 18 19 20 22 23 24 23 23 25 26 25 24 26 25 23 24 23 22 22 25 25 26 24 24 24 24 25 25 24 22
15 16 19 17 13 13 14 14 13 14 17 17 18 20 22 24 26 28 31 31 30 29 29 28 25 27 29 27 25 23 25 27 25 28 28 28 27 26 25 26 26 25 24 23
10 10 13 13 13 14 15 16 18 19 21 20 22 23 25 26 26 29 33 35 32 29 29 28 28 30 31 31 30 28 28 27 28 28 27 27 27 26 26 26 26 24 24 24
14 12 16 16 18 18 19 20 22 23 23 23 24 25 27 28 29 33 37 35 34 33 28 33 22 26 32 31 26 26 26 27 29 31 29 28 28 29 28 27 25 25 26 26
21 20 20 23 24 24 24 25 25 27 29 27 28 29 31 35 37 36 39 33 32 29 32 32 33 32 29 30 23 27 28 27 27 29 30 29 28 27 26 24 24 26 30 30
24 23 24 25 27 27 27 27 27 28 30 29 27 29 31 37 38 36 35 31 30 33 33 30 33 30 29 26 25 31 33 31 30 29 28 26 26 25 24 25 26 29 29 30
29 27 27 27 28 31 32 31 29 29 30 30 32 32 31 33 34 36 34 30 30 28 30 29 29 27 26 22 22 23 23 24 24 25 26 26 26 24 24 25 27 28 29 31
29 29 27 28 28 32 34 32 31 29 29 29 29 29 28 27 28 29 28 30 32 31 27 26 24 21 19 19 20 22 23 23 23 23 23 23 23 24 25 27 29 29 31 32
31 29 32 32 30 31 30 33 29 31 30 32 33 32 29 28 30 31 30 28 27 26 26 25 23 15 18 24 22 22 22 22 22 22 23 22 23 25 28 29 30 30 31 32
33 32 30 31 27 28 27 28 28 29 28 29 31 32 32 29 29 31 32 28 24 23 25 23 17 17 24 23 23 22 22 22 23 23 24 24 26 28 29 30 31 31 31 32
27 27 27 26 26 27 27 27 26 27 26 27 27 32 34 34 31 29 29 26 26 24 26 26 25 22 22 21 22 22 22 22 22 23 23 25 26 27 29 29 30 30 31 32
29 28 30 29 29 27 27 26 26 26 29 32 31 33 33 33 31 27 26 26 26 26 26 26 23 22 23 23 23 23 23 23 23 24 25 26 27 28 28 28 29 30 31 31